Bethany Beach, DE-Boardwalk DE USA current weather conditions

sailwx.info

Wind from 175 at 6 knots gusting 8

Air temperature 9.2° C
Dewpoint 5.2° C

Last reported at 2020-Feb-24 16:05 UTC.
Time now 2020-Feb-24 16:57 UTC

Location: N 38°32' W 075°03'.
View on Google Maps.

See reports from other nearby stations

  
Tides and Currents Weather Stations Pressure Air Temp Water Temp Dewpoint Dewpoint Depression Visibility Wind Speed Wind Dir Waves Ship Positions
date/time (UTC)wind fromknots sea level pressurealtimeterstation pressurevisibilityair tempwater tempwave heightnotes
2020-Feb-24 16:05 175 6 gusting 8 9.2
2020-Feb-24 16:00 170 5 gusting 7 9.2
2020-Feb-24 15:55 171 4 gusting 7 9.1
2020-Feb-24 15:50 168 4 gusting 7 9.1
2020-Feb-24 15:45 168 4 gusting 6 9.5
2020-Feb-24 15:40 172 4 gusting 6 9.4
2020-Feb-24 15:35 173 5 gusting 7 9.2
2020-Feb-24 15:30 173 5 gusting 8 9.3
2020-Feb-24 15:25 171 3 gusting 5 9.3
2020-Feb-24 15:20 167 4 gusting 6 9.1
2020-Feb-24 15:15 160 5 gusting 6 8.6
2020-Feb-24 15:10 155 4 gusting 6 8.6
2020-Feb-24 15:05 154 3 gusting 6 8.9
2020-Feb-24 15:00 154 3 gusting 5 8.8
2020-Feb-24 14:55 156 3 gusting 5 8.6
2020-Feb-24 14:50 155 4 gusting 5 9.4
2020-Feb-24 14:45 204 3 gusting 5 11.4
2020-Feb-24 14:40 212 4 gusting 6 11.2
2020-Feb-24 14:35 213 3 gusting 6 11.3
2020-Feb-24 14:30 209 3 gusting 6 11.5
2020-Feb-24 14:25 232 2 gusting 4 11.1
2020-Feb-24 14:20 229 2 gusting 5 11.1
2020-Feb-24 14:15 223 2 gusting 4 11.0
2020-Feb-24 14:10 245 1 gusting 3 10.8
2020-Feb-24 14:05 241 2 gusting 5 10.5
2020-Feb-24 14:00 233 2 gusting 5 10.2
2020-Feb-24 13:55 238 3 gusting 6 9.9
2020-Feb-24 13:50 239 2 gusting 5 10.1
2020-Feb-24 13:45 218 1 gusting 3 10.0
2020-Feb-24 13:40 225 1 gusting 3 9.5
2020-Feb-24 13:35 223 2 gusting 4 9.5
2020-Feb-24 13:30 233 2 gusting 4 9.3
2020-Feb-24 13:25 238 2 gusting 4 8.9
2020-Feb-24 13:20 231 2 gusting 4 8.6
2020-Feb-24 13:15 221 2 gusting 4 8.5
2020-Feb-24 13:10 224 2 gusting 4 8.3
2020-Feb-24 13:05 235 2 gusting 4 8.3
2020-Feb-24 13:00 221 2 gusting 5 8.2
2020-Feb-24 12:55 231 1 gusting 3 7.9
2020-Feb-24 12:50 225 1 gusting 3 7.7
2020-Feb-24 12:45 212 2 gusting 4 7.4
2020-Feb-24 12:40 233 1 gusting 3 7.0
2020-Feb-24 12:35 240 1 gusting 3 6.9
2020-Feb-24 12:30 192 2 gusting 3 6.8
2020-Feb-24 12:25 223 1 gusting 3 6.5
2020-Feb-24 12:20 210 1 gusting 2 6.4
2020-Feb-24 12:15 196 1 gusting 2 6.0
2020-Feb-24 12:10 223 1 gusting 4 5.8
2020-Feb-24 12:05 202 2 gusting 4 5.5
2020-Feb-24 12:00 237 1 gusting 3 5.4
2020-Feb-24 11:55 234 1 gusting 2 5.5
2020-Feb-24 11:50 214 1 gusting 2 5.6
2020-Feb-24 11:45 207 1 gusting 3 5.6
2020-Feb-24 11:40 203 2 gusting 3 5.7
2020-Feb-24 11:35 207 2 gusting 3 5.9
2020-Feb-24 11:30 226 2 gusting 5 6.0
2020-Feb-24 11:25 238 2 gusting 4 5.9
2020-Feb-24 11:20 247 2 gusting 4 6.1
2020-Feb-24 11:15 262 2 gusting 4 6.2
2020-Feb-24 11:10 254 2 gusting 4 6.2
2020-Feb-24 11:05 254 2 gusting 4 6.2
2020-Feb-24 11:00 247 2 gusting 5 6.3
2020-Feb-24 10:55 241 3 gusting 6 6.4
2020-Feb-24 10:50 243 3 gusting 5 6.4
2020-Feb-24 10:45 239 2 gusting 4 6.4
2020-Feb-24 10:40 239 3 gusting 5 6.3
2020-Feb-24 10:35 239 2 gusting 5 6.4
2020-Feb-24 10:30 241 2 gusting 5 6.4
2020-Feb-24 10:25 242 2 gusting 4 6.4
2020-Feb-24 10:20 237 2 gusting 4 6.4
2020-Feb-24 10:15 235 2 gusting 4 6.5
2020-Feb-24 10:10 234 2 gusting 5 6.5
2020-Feb-24 10:05 238 3 gusting 6 6.6
2020-Feb-24 10:00 235 2 gusting 4 6.7
2020-Feb-24 09:55 234 2 gusting 5 6.7
2020-Feb-24 09:50 232 3 gusting 7 6.9
2020-Feb-24 09:45 232 3 gusting 4 6.9
2020-Feb-24 09:40 231 4 gusting 7 6.9
2020-Feb-24 09:35 228 3 gusting 6 6.9
2020-Feb-24 09:30 228 3 gusting 5 6.9
2020-Feb-24 09:25 228 3 gusting 6 7.0
2020-Feb-24 09:20 229 4 gusting 6 7.1
2020-Feb-24 09:15 229 3 gusting 5 7.0
2020-Feb-24 09:10 225 3 gusting 6 7.0
2020-Feb-24 09:05 224 3 gusting 7 7.1
2020-Feb-24 09:00 225 4 gusting 7 7.0
2020-Feb-24 08:55 225 3 gusting 6 6.9
2020-Feb-24 08:50 226 3 gusting 6 6.9
2020-Feb-24 08:45 225 3 gusting 6 6.8
2020-Feb-24 08:40 226 2 gusting 6 6.8
2020-Feb-24 08:35 222 3 gusting 6 6.8
2020-Feb-24 08:30 220 3 gusting 5 6.7
2020-Feb-24 08:25 220 2 gusting 6 6.6
2020-Feb-24 08:20 220 2 gusting 4 6.5
2020-Feb-24 08:15 219 2 gusting 6 6.4
2020-Feb-24 08:10 220 2 gusting 6 6.2
2020-Feb-24 08:05 215 2 gusting 4 6.1
2020-Feb-24 08:00 216 2 gusting 4 6.0
2020-Feb-24 07:55 218 2 gusting 4 5.9
2020-Feb-24 07:50 220 2 gusting 4 5.8
2020-Feb-24 07:45 219 2 gusting 3 5.8
2020-Feb-24 07:40 218 2 gusting 3 5.8
2020-Feb-24 07:35 216 1 gusting 2 5.8
2020-Feb-24 07:30 213 2 gusting 3 5.7
2020-Feb-24 07:25 210 2 gusting 3 5.7
2020-Feb-24 07:20 212 2 gusting 3 5.6
2020-Feb-24 07:15 218 1 gusting 2 5.7
2020-Feb-24 07:10 215 1 gusting 2 5.7
2020-Feb-24 07:05 214 1 gusting 2 5.7
2020-Feb-24 07:00 210 2 gusting 4 5.7
2020-Feb-24 06:55 207 2 gusting 3 5.6
2020-Feb-24 06:50 209 1 gusting 2 5.7
2020-Feb-24 06:45 207 2 gusting 3 5.7
2020-Feb-24 06:40 209 2 gusting 4 5.7
2020-Feb-24 06:35 207 2 gusting 3 5.8
2020-Feb-24 06:30 203 2 gusting 3 5.8
2020-Feb-24 06:25 202 2 gusting 5 5.8
2020-Feb-24 06:20 208 2 gusting 3 5.9
2020-Feb-24 06:15 202 3 gusting 4 5.9
2020-Feb-24 06:10 201 3 gusting 5 5.8
2020-Feb-24 06:05 201 3 gusting 4 5.9
2020-Feb-24 06:00 199 3 gusting 5 6.0
2020-Feb-24 05:55 202 3 gusting 5 6.0
2020-Feb-24 05:50 193 4 gusting 6 6.1
2020-Feb-24 05:45 200 4 gusting 5 6.1
2020-Feb-24 05:40 196 4 gusting 8 6.2
2020-Feb-24 05:35 198 4 gusting 8 6.3
2020-Feb-24 05:30 196 5 gusting 8 6.3
2020-Feb-24 05:25 194 5 gusting 9 6.4
2020-Feb-24 05:20 198 5 gusting 7 6.4
2020-Feb-24 05:15 196 5 gusting 8 6.4
2020-Feb-24 05:10 199 4 gusting 7 6.5
2020-Feb-24 05:05 199 5 gusting 8 6.5
2020-Feb-24 05:00 198 5 gusting 9 6.5
2020-Feb-24 04:55 197 6 gusting 9 6.5
2020-Feb-24 04:50 197 5 gusting 9 6.6
2020-Feb-24 04:45 197 6 gusting 9 6.6
2020-Feb-24 04:40 198 6 gusting 9 6.6
2020-Feb-24 04:35 199 5 gusting 8 6.6
2020-Feb-24 04:30 196 6 gusting 8 6.6
2020-Feb-24 04:25 198 6 gusting 10 6.6
2020-Feb-24 04:20 198 6 gusting 9 6.6
2020-Feb-24 04:15 198 5 gusting 8 6.7
2020-Feb-24 04:10 197 7 gusting 11 6.7
2020-Feb-24 04:05 199 6 gusting 10 6.8
2020-Feb-24 04:00 196 7 gusting 11 6.8
2020-Feb-24 03:55 195 7 gusting 10 6.7
2020-Feb-24 03:50 199 5 gusting 7 6.7
2020-Feb-24 03:45 202 5 gusting 8 6.8
2020-Feb-24 03:40 199 6 gusting 9 6.7
2020-Feb-24 03:35 198 5 gusting 9 6.7
2020-Feb-24 03:30 197 5 gusting 9 6.7
2020-Feb-24 03:25 197 6 gusting 9 6.7
2020-Feb-24 03:20 196 6 gusting 10 6.7
2020-Feb-24 03:15 196 6 gusting 9 6.6
2020-Feb-24 03:10 198 6 gusting 9 6.5
2020-Feb-24 03:05 198 5 gusting 10 6.4
2020-Feb-24 03:00 195 6 gusting 9 6.4
2020-Feb-24 02:55 195 5 gusting 8 6.3
2020-Feb-24 02:50 192 6 gusting 9 6.2
2020-Feb-24 02:45 190 6 gusting 9 6.2
2020-Feb-24 02:40 191 6 gusting 9 6.3
2020-Feb-24 02:35 193 7 gusting 11 6.3
2020-Feb-24 02:30 194 6 gusting 9 6.2
2020-Feb-24 02:25 193 6 gusting 8 6.1
2020-Feb-24 02:20 197 6 gusting 10 6.1
2020-Feb-24 02:15 197 6 gusting 8 6.0
2020-Feb-24 02:10 199 5 gusting 7 5.9
2020-Feb-24 02:05 198 5 gusting 7 5.9
2020-Feb-24 02:00 197 4 gusting 6 5.8
2020-Feb-24 01:55 203 4 gusting 6 5.8
2020-Feb-24 01:50 206 3 gusting 5 5.7
2020-Feb-24 01:45 209 3 gusting 5 5.7
2020-Feb-24 01:40 205 3 gusting 6 5.6
2020-Feb-24 01:35 204 3 gusting 6 5.5
2020-Feb-24 01:30 207 3 gusting 6 5.5
2020-Feb-24 01:25 212 3 gusting 6 5.5
2020-Feb-24 01:20 210 3 gusting 5 5.5
2020-Feb-24 01:15 212 3 gusting 6 5.5
2020-Feb-24 01:10 208 3 gusting 6 5.6
2020-Feb-24 01:05 208 4 gusting 7 5.6
2020-Feb-24 01:00 208 3 gusting 5 5.6
2020-Feb-24 00:55 206 3 gusting 5 5.7
2020-Feb-24 00:50 199 4 gusting 8 5.6
2020-Feb-24 00:45 206 3 gusting 6 5.6
2020-Feb-24 00:40 207 3 gusting 7 5.7
2020-Feb-24 00:35 201 4 gusting 7 5.8
2020-Feb-24 00:30 199 5 gusting 9 5.8
2020-Feb-24 00:25 203 4 gusting 7 5.7
2020-Feb-24 00:20 205 4 gusting 8 5.8
2020-Feb-24 00:15 207 5 gusting 7 5.8
2020-Feb-24 00:10 210 4 gusting 8 5.7
2020-Feb-24 00:05 209 4 gusting 7 5.8
2020-Feb-24 00:00 208 4 gusting 7 5.8
2020-Feb-23 23:55 208 4 gusting 6 5.8
2020-Feb-23 23:50 206 3 gusting 6 5.8
2020-Feb-23 23:45 200 4 gusting 8 5.8
2020-Feb-23 23:40 199 5 gusting 8 5.9
2020-Feb-23 23:35 196 6 gusting 9 5.9
2020-Feb-23 23:30 197 6 gusting 9 5.9
2020-Feb-23 23:25 195 5 gusting 8 5.9
2020-Feb-23 23:20 196 6 gusting 10 5.9
2020-Feb-23 23:15 197 6 gusting 9 5.9
2020-Feb-23 23:10 195 6 gusting 9 5.9
2020-Feb-23 23:05 194 6 gusting 10 5.8
2020-Feb-23 23:00 191 6 gusting 9 5.8
2020-Feb-23 22:55 191 6 gusting 9 5.9
2020-Feb-23 22:50 193 5 gusting 8 5.9
2020-Feb-23 22:45 192 6 gusting 10 5.9
2020-Feb-23 22:40 188 6 gusting 9 5.9
2020-Feb-23 22:35 186 6 gusting 9 6.0
2020-Feb-23 22:30 189 6 gusting 9 6.0
2020-Feb-23 22:25 185 6 gusting 10 6.2
2020-Feb-23 22:20 181 7 gusting 10 6.2
2020-Feb-23 22:15 180 8 gusting 11 6.3
2020-Feb-23 22:10 175 8 gusting 11 6.5
2020-Feb-23 22:05 176 8 gusting 10 6.6
2020-Feb-23 22:00 178 7 gusting 11 6.7
2020-Feb-23 21:55 176 6 gusting 9 6.8
2020-Feb-23 21:50 175 7 gusting 10 6.8
2020-Feb-23 21:45 175 7 gusting 10 6.8
2020-Feb-23 21:40 175 7 gusting 9 6.9
2020-Feb-23 21:35 172 5 gusting 9 7.0
2020-Feb-23 21:30 169 6 gusting 9 6.8
2020-Feb-23 21:25 167 7 gusting 10 6.7
2020-Feb-23 21:20 164 9 gusting 10 6.6
2020-Feb-23 21:15 163 8 gusting 11 6.6
2020-Feb-23 21:10 164 8 gusting 11 6.7
2020-Feb-23 21:05 167 8 gusting 10 6.7
2020-Feb-23 21:00 165 8 gusting 10 6.7
2020-Feb-23 20:55 167 8 gusting 10 6.7
2020-Feb-23 20:50 164 8 gusting 10 6.7
2020-Feb-23 20:45 162 8 gusting 10 6.7
2020-Feb-23 20:40 157 8 gusting 10 6.8
2020-Feb-23 20:35 157 7 gusting 9 6.7
2020-Feb-23 20:30 156 7 gusting 9 6.9
2020-Feb-23 20:25 152 7 gusting 9 6.9
2020-Feb-23 20:20 149 7 gusting 9 6.9
2020-Feb-23 20:15 153 6 gusting 9 7.1
2020-Feb-23 20:10 159 6 gusting 8 6.8
2020-Feb-23 20:05 158 7 gusting 8 6.8
2020-Feb-23 20:00 158 6 gusting 8 6.9
2020-Feb-23 19:55 160 6 gusting 8 7.2
2020-Feb-23 19:50 159 5 gusting 7 7.2
2020-Feb-23 19:45 158 6 gusting 7 7.1
2020-Feb-23 19:40 158 5 gusting 6 7.0
2020-Feb-23 19:35 156 5 gusting 6 7.5
2020-Feb-23 19:30 152 4 gusting 5 7.4
2020-Feb-23 19:25 150 4 gusting 6 7.0
2020-Feb-23 19:20 147 4 gusting 5 7.1
2020-Feb-23 19:15 151 4 gusting 5 7.4
2020-Feb-23 19:10 155 4 gusting 5 7.2
2020-Feb-23 19:05 154 4 gusting 5 7.1
2020-Feb-23 19:00 154 4 gusting 5 7.2
2020-Feb-23 18:55 155 4 gusting 5 7.2
2020-Feb-23 18:50 153 4 gusting 5 7.1
2020-Feb-23 18:45 159 4 gusting 5 7.1
2020-Feb-23 18:40 159 4 gusting 5 7.4
2020-Feb-23 18:35 158 3 gusting 5 7.2
2020-Feb-23 18:30 158 4 gusting 6 6.8
2020-Feb-23 18:25 161 4 gusting 6 6.9
2020-Feb-23 18:20 156 5 gusting 6 7.1
2020-Feb-23 18:15 152 4 gusting 6 7.0
2020-Feb-23 18:10 152 4 gusting 5 6.9
2020-Feb-23 18:05 153 4 gusting 5 6.9
2020-Feb-23 18:00 154 4 gusting 5 7.0
2020-Feb-23 17:55 154 3 gusting 4 7.2
2020-Feb-23 17:50 154 3 gusting 4 6.8
2020-Feb-23 17:45 157 4 gusting 5 6.7
2020-Feb-23 17:40 162 3 gusting 5 6.6
2020-Feb-23 17:35 158 3 gusting 4 6.8
2020-Feb-23 17:30 158 3 gusting 5 7.0
2020-Feb-23 17:25 156 3 gusting 4 6.9
2020-Feb-23 17:20 154 3 gusting 4 7.1
2020-Feb-23 17:15 155 3 gusting 4 7.2
2020-Feb-23 17:10 155 3 gusting 4 6.9
2020-Feb-23 17:05 154 3 gusting 4 7.2
2020-Feb-23 17:00 156 2 gusting 4 7.1
2020-Feb-23 16:55 155 3 gusting 4 6.9
2020-Feb-23 16:50 155 3 gusting 4 6.8
2020-Feb-23 16:45 159 3 gusting 4 6.9
2020-Feb-23 16:40 149 2 gusting 4 7.0
2020-Feb-23 16:35 147 2 gusting 4 6.7
2020-Feb-23 16:30 142 2 gusting 3 6.7
2020-Feb-23 16:25 145 2 gusting 4 6.4
2020-Feb-23 16:20 141 3 gusting 4 6.5
2020-Feb-23 16:15 138 3 gusting 3 6.6
2020-Feb-23 16:10 131 2 gusting 3 6.6
2020-Feb-23 16:05 136 2 gusting 3 6.7
2020-Feb-23 16:00 134 2 gusting 3 6.6
2020-Feb-23 15:55 126 2 gusting 2 6.6
2020-Feb-23 15:50 133 2 gusting 3 6.5
2020-Feb-23 15:45 133 2 gusting 3 6.5
2020-Feb-23 15:40 136 2 gusting 3 6.7
2020-Feb-23 15:35 138 2 gusting 3 6.5
2020-Feb-23 15:30 128 2 gusting 2 6.6
2020-Feb-23 15:25 128 1 gusting 2 6.7
2020-Feb-23 15:20 120 2 gusting 2 6.5
2020-Feb-23 15:15 117 2 gusting 2 6.6
2020-Feb-23 15:10 119 2 gusting 2 6.7
2020-Feb-23 15:05 106 1 gusting 2 6.7
2020-Feb-23 15:00 126 1 gusting 2 6.5
2020-Feb-23 14:55 095 1 gusting 2 6.6
2020-Feb-23 14:50 106 1 gusting 1 6.5
2020-Feb-23 14:45 103 1 gusting 2 6.4
2020-Feb-23 14:40 108 2 gusting 2 6.3
2020-Feb-23 14:35 112 2 gusting 3 6.5
2020-Feb-23 14:30 096 1 gusting 2 6.4
2020-Feb-23 14:25 100 1 gusting 2 6.6
2020-Feb-23 14:20 102 1 gusting 2 6.3
2020-Feb-23 14:15 091 2 gusting 2 6.3
2020-Feb-23 14:10 067 1 gusting 2 6.5
2020-Feb-23 14:05 062 1 gusting 2 6.8
2020-Feb-23 14:00 048 1 gusting 3 6.7
2020-Feb-23 13:55 018 0 gusting 2 6.3
2020-Feb-23 13:50 320 1 gusting 2 6.1
2020-Feb-23 13:45 303 0 gusting 2 5.6
2020-Feb-23 13:40 314 1 gusting 2 5.3
2020-Feb-23 13:35 305 2 gusting 4 4.8
2020-Feb-23 13:30 312 2 gusting 4 4.5
2020-Feb-23 13:25 310 2 gusting 3 4.2
2020-Feb-23 13:20 312 2 gusting 4 3.9
2020-Feb-23 13:15 315 2 gusting 4 3.7
2020-Feb-23 13:10 299 2 gusting 4 3.3
2020-Feb-23 13:05 295 2 gusting 4 3.0
2020-Feb-23 13:00 293 3 gusting 5 2.7
2020-Feb-23 12:55 293 3 gusting 5 2.4
2020-Feb-23 12:50 294 3 gusting 4 2.1
2020-Feb-23 12:45 290 2 gusting 4 1.8
2020-Feb-23 12:40 285 3 gusting 4 1.6
2020-Feb-23 12:35 286 3 gusting 5 1.3
2020-Feb-23 12:30 286 3 gusting 5 1.1
2020-Feb-23 12:25 285 3 gusting 4 0.9
2020-Feb-23 12:20 285 3 gusting 4 0.7
2020-Feb-23 12:15 287 3 gusting 4 0.6
2020-Feb-23 12:10 287 3 gusting 4 0.4
2020-Feb-23 12:05 288 3 gusting 5 0.4
2020-Feb-23 12:00 288 4 gusting 5 0.3
2020-Feb-23 11:55 286 3 gusting 4 0.2
2020-Feb-23 11:50 284 2 gusting 4 0.1
2020-Feb-23 11:45 287 3 gusting 4 0.2
2020-Feb-23 11:40 286 3 gusting 5 0.3
2020-Feb-23 11:35 288 3 gusting 5 0.3
2020-Feb-23 11:30 288 3 gusting 5 0.3
2020-Feb-23 11:25 288 3 gusting 4 0.4
2020-Feb-23 11:20 282 2 gusting 4 0.5
2020-Feb-23 11:15 286 3 gusting 5 0.5
2020-Feb-23 11:10 286 2 gusting 5 0.6
2020-Feb-23 11:05 281 3 gusting 5 0.6
2020-Feb-23 11:00 284 2 gusting 5 0.6
2020-Feb-23 10:55 285 3 gusting 4 0.7
2020-Feb-23 10:50 280 3 gusting 4 0.7
2020-Feb-23 10:45 276 3 gusting 4 0.8
2020-Feb-23 10:40 283 3 gusting 5 0.9
2020-Feb-23 10:35 283 3 gusting 5 1.0
2020-Feb-23 10:30 281 2 gusting 4 1.1
2020-Feb-23 10:25 283 3 gusting 6 1.2
2020-Feb-23 10:20 276 3 gusting 6 1.2
2020-Feb-23 10:15 272 3 gusting 5 1.2
2020-Feb-23 10:10 274 3 gusting 6 1.2
2020-Feb-23 10:05 269 4 gusting 6 1.2
2020-Feb-23 10:00 272 3 gusting 6 1.2
2020-Feb-23 09:55 269 3 gusting 6 1.2
2020-Feb-23 09:50 274 3 gusting 5 1.2
2020-Feb-23 09:45 271 3 gusting 4 1.2
2020-Feb-23 09:40 270 3 gusting 4 1.3
2020-Feb-23 09:35 268 3 gusting 5 1.4
2020-Feb-23 09:30 270 3 gusting 6 1.4
2020-Feb-23 09:25 271 3 gusting 5 1.5
2020-Feb-23 09:20 268 3 gusting 5 1.6
2020-Feb-23 09:15 264 3 gusting 6 1.6
2020-Feb-23 09:10 265 3 gusting 5 1.6
2020-Feb-23 09:05 267 3 gusting 5 1.6
2020-Feb-23 09:00 264 3 gusting 5 1.6
2020-Feb-23 08:55 263 3 gusting 6 1.6
2020-Feb-23 08:50 263 2 gusting 6 1.6
2020-Feb-23 08:45 268 2 gusting 4 1.7
2020-Feb-23 08:40 269 2 gusting 5 1.7
2020-Feb-23 08:35 270 2 gusting 4 1.8
2020-Feb-23 08:30 266 2 gusting 5 1.9
2020-Feb-23 08:25 270 2 gusting 4 2.1
2020-Feb-23 08:20 259 3 gusting 6 2.3
2020-Feb-23 08:15 261 3 gusting 5 2.3
2020-Feb-23 08:10 254 2 gusting 6 2.3
2020-Feb-23 08:05 254 3 gusting 6 2.4
2020-Feb-23 08:00 255 3 gusting 7 2.5
2020-Feb-23 07:55 250 3 gusting 6 2.5
2020-Feb-23 07:50 247 3 gusting 6 2.6
2020-Feb-23 07:45 246 3 gusting 5 2.6
2020-Feb-23 07:40 245 3 gusting 6 2.6
2020-Feb-23 07:35 240 3 gusting 6 2.6
2020-Feb-23 07:30 239 3 gusting 5 2.6
2020-Feb-23 07:25 243 2 gusting 5 2.6
2020-Feb-23 07:20 244 2 gusting 5 2.7
2020-Feb-23 07:15 244 3 gusting 6 2.8
2020-Feb-23 07:10 248 3 gusting 6 2.8
2020-Feb-23 07:05 245 3 gusting 5 2.8
2020-Feb-23 07:00 248 2 gusting 5 2.9
2020-Feb-23 06:55 242 3 gusting 7 2.9
2020-Feb-23 06:50 239 2 gusting 5 3.0
2020-Feb-23 06:45 239 3 gusting 8 3.0
2020-Feb-23 06:40 239 3 gusting 6 3.1
2020-Feb-23 06:35 239 3 gusting 6 3.1
2020-Feb-23 06:30 242 3 gusting 6 3.2
2020-Feb-23 06:25 240 3 gusting 6 3.3
2020-Feb-23 06:20 238 3 gusting 6 3.3
2020-Feb-23 06:15 238 3 gusting 7 3.4
2020-Feb-23 06:10 238 3 gusting 6 3.4
2020-Feb-23 06:05 237 3 gusting 5 3.4
2020-Feb-23 06:00 238 3 gusting 6 3.5
2020-Feb-23 05:55 238 3 gusting 6 3.6
2020-Feb-23 05:50 237 3 gusting 7 3.6
2020-Feb-23 05:45 242 3 gusting 8 3.7
2020-Feb-23 05:40 242 4 gusting 7 3.7
2020-Feb-23 05:35 239 3 gusting 7 3.8
2020-Feb-23 05:30 237 3 gusting 8 3.8
2020-Feb-23 05:25 238 3 gusting 7 3.9
2020-Feb-23 05:20 240 4 gusting 6 3.9
2020-Feb-23 05:15 242 3 gusting 6 4.0
2020-Feb-23 05:10 244 3 gusting 7 4.0
2020-Feb-23 05:05 246 4 gusting 8 4.0
2020-Feb-23 05:00 235 3 gusting 7 4.0
2020-Feb-23 04:55 241 4 gusting 8 4.0
2020-Feb-23 04:50 237 4 gusting 9 4.2
2020-Feb-23 04:45 234 4 gusting 8 4.2
2020-Feb-23 04:40 242 4 gusting 8 4.2
2020-Feb-23 04:35 236 4 gusting 9 4.2
2020-Feb-23 04:30 239 4 gusting 8 4.2
2020-Feb-23 04:25 236 4 gusting 9 4.2
2020-Feb-23 04:20 236 4 gusting 9 4.2
2020-Feb-23 04:15 242 4 gusting 8 4.3
2020-Feb-23 04:10 230 4 gusting 8 4.3
2020-Feb-23 04:05 230 4 gusting 9 4.2
2020-Feb-23 04:00 228 5 gusting 10 4.2
2020-Feb-23 03:55 226 5 gusting 8 4.1
2020-Feb-23 03:50 227 5 gusting 9 3.9
2020-Feb-23 03:45 229 4 gusting 7 3.6
2020-Feb-23 03:40 227 3 gusting 7 3.5
2020-Feb-23 03:35 222 3 gusting 5 3.5
2020-Feb-23 03:30 221 3 gusting 6 3.3
2020-Feb-23 03:25 219 3 gusting 5 3.4
2020-Feb-23 03:20 223 2 gusting 4 3.4
2020-Feb-23 03:15 217 3 gusting 7 3.4
2020-Feb-23 03:10 220 3 gusting 5 3.5
2020-Feb-23 03:05 215 3 gusting 5 3.4
2020-Feb-23 03:00 220 3 gusting 6 3.4
2020-Feb-23 02:55 214 3 gusting 4 3.3
2020-Feb-23 02:50 221 3 gusting 5 3.3
2020-Feb-23 02:45 217 3 gusting 6 3.4
2020-Feb-23 02:40 217 3 gusting 6 3.4
2020-Feb-23 02:35 222 3 gusting 6 3.3
2020-Feb-23 02:30 218 3 gusting 5 3.4
2020-Feb-23 02:25 220 3 gusting 5 3.4
2020-Feb-23 02:20 217 3 gusting 5 3.5
2020-Feb-23 02:15 224 3 gusting 6 3.5
2020-Feb-23 02:10 219 2 gusting 5 3.5
2020-Feb-23 02:05 212 3 gusting 5 3.6
2020-Feb-23 02:00 210 3 gusting 5 3.6
2020-Feb-23 01:55 214 2 gusting 5 3.6
2020-Feb-23 01:50 220 2 gusting 4 3.7
2020-Feb-23 01:45 216 2 gusting 4 3.7
2020-Feb-23 01:40 218 2 gusting 4 3.7
2020-Feb-23 01:35 218 2 gusting 4 3.8
2020-Feb-23 01:30 212 2 gusting 5 3.8
2020-Feb-23 01:25 207 2 gusting 5 3.8
2020-Feb-23 01:20 214 2 gusting 3 3.9
2020-Feb-23 01:15 220 3 gusting 4 4.0
2020-Feb-23 01:10 220 2 gusting 4 3.9
2020-Feb-23 01:05 215 2 gusting 4 3.8
2020-Feb-23 01:00 219 2 gusting 2 3.9
2020-Feb-23 00:55 227 1 gusting 3 4.0
2020-Feb-23 00:50 221 1 gusting 3 4.1
2020-Feb-23 00:45 226 2 gusting 3 4.2
2020-Feb-23 00:40 225 1 gusting 2 4.3
2020-Feb-23 00:35 223 1 gusting 2 4.3
2020-Feb-23 00:30 230 1 gusting 2 4.5
2020-Feb-23 00:25 215 1 gusting 2 4.7
2020-Feb-23 00:20 204 1 gusting 2 4.6
2020-Feb-23 00:15 198 1 gusting 2 4.7
2020-Feb-23 00:10 209 1 gusting 2 5.0
2020-Feb-23 00:05 223 1 gusting 2 5.2
2020-Feb-23 00:00 227 1 gusting 2 5.3
2020-Feb-22 23:55 226 1 gusting 3 5.6
2020-Feb-22 23:50 226 2 gusting 3 5.8
2020-Feb-22 23:45 231 2 gusting 4 5.8
2020-Feb-22 23:40 237 2 gusting 4 5.9
2020-Feb-22 23:35 244 1 gusting 3 5.9
2020-Feb-22 23:30 244 1 gusting 4 6.0
2020-Feb-22 23:25 247 1 gusting 3 6.2
2020-Feb-22 23:20 245 1 gusting 2 6.4
2020-Feb-22 23:15 252 1 gusting 3 6.6
2020-Feb-22 23:10 252 1 gusting 3 6.7
2020-Feb-22 23:05 247 2 gusting 5 6.8
2020-Feb-22 23:00 249 1 gusting 3 7.0
2020-Feb-22 22:55 248 1 gusting 4 7.2
2020-Feb-22 22:50 247 2 gusting 5 7.4
2020-Feb-22 22:45 255 2 gusting 5 7.7
2020-Feb-22 22:40 253 3 gusting 9 7.8
2020-Feb-22 22:35 248 3 gusting 7 8.0
2020-Feb-22 22:30 254 3 gusting 6 8.2
2020-Feb-22 22:25 253 2 gusting 7 8.3
2020-Feb-22 22:20 256 3 gusting 5 8.4
2020-Feb-22 22:15 251 4 gusting 9 8.6
2020-Feb-22 22:10 265 4 gusting 8 8.9
2020-Feb-22 22:05 248 3 gusting 8 8.9
2020-Feb-22 22:00 244 3 gusting 5 9.0
2020-Feb-22 21:55 247 4 gusting 9 9.2
2020-Feb-22 21:50 248 2 gusting 8 9.4
2020-Feb-22 21:45 252 4 gusting 8 9.4
2020-Feb-22 21:40 255 5 gusting 9 9.5
2020-Feb-22 21:35 246 5 gusting 11 9.7
2020-Feb-22 21:30 248 4 gusting 8 9.9
2020-Feb-22 21:25 274 4 gusting 8 10.0
2020-Feb-22 21:20 233 5 gusting 9 9.8
2020-Feb-22 21:15 267 5 gusting 10 10.2
2020-Feb-22 21:10 266 4 gusting 8 10.3
2020-Feb-22 21:05 272 3 gusting 8 10.4
2020-Feb-22 21:00 255 4 gusting 9 10.4
2020-Feb-22 20:55 263 4 gusting 9 10.5
2020-Feb-22 20:50 279 4 gusting 8 10.7
2020-Feb-22 20:45 262 4 gusting 8 10.8
2020-Feb-22 20:40 231 3 gusting 5 10.6
2020-Feb-22 20:35 256 4 gusting 7 10.6
2020-Feb-22 20:30 276 3 gusting 10 10.9
2020-Feb-22 20:25 247 4 gusting 7 10.7
2020-Feb-22 20:20 263 4 gusting 9 10.7
2020-Feb-22 20:15 274 4 gusting 9 10.7
2020-Feb-22 20:10 259 4 gusting 7 10.6
2020-Feb-22 20:05 244 5 gusting 7 10.4
2020-Feb-22 20:00 276 4 gusting 7 10.5
2020-Feb-22 19:55 263 5 gusting 11 10.7
2020-Feb-22 19:50 256 3 gusting 8 10.7
2020-Feb-22 19:45 258 4 gusting 9 10.6
2020-Feb-22 19:40 269 3 gusting 8 10.4
2020-Feb-22 19:35 265 3 gusting 9 10.4
2020-Feb-22 19:30 271 5 gusting 10 10.2
2020-Feb-22 19:25 304 4 gusting 8 10.4
2020-Feb-22 19:20 293 4 gusting 10 10.3
2020-Feb-22 19:15 253 4 gusting 8 10.0
2020-Feb-22 19:10 272 5 gusting 10 9.6
2020-Feb-22 19:05 263 5 gusting 9 9.7
2020-Feb-22 19:00 249 5 gusting 11 9.5
2020-Feb-22 18:55 259 6 gusting 9 9.5
2020-Feb-22 18:50 260 5 gusting 10 9.6
2020-Feb-22 18:45 286 5 gusting 11 9.2
2020-Feb-22 18:40 278 6 gusting 12 9.5
2020-Feb-22 18:35 262 4 gusting 9 9.4
2020-Feb-22 18:30 257 5 gusting 9 9.1
2020-Feb-22 18:25 267 4 gusting 11 9.3
2020-Feb-22 18:20 258 4 gusting 9 9.3
2020-Feb-22 18:15 283 4 gusting 9 8.9
2020-Feb-22 18:10 283 3 gusting 8 8.8
2020-Feb-22 18:05 288 5 gusting 9 8.8
2020-Feb-22 18:00 285 5 gusting 10 8.7
2020-Feb-22 17:55 273 4 gusting 10 8.8
2020-Feb-22 17:50 267 4 gusting 9 8.8
2020-Feb-22 17:45 287 5 gusting 10 8.2
2020-Feb-22 17:40 276 5 gusting 9 8.3
2020-Feb-22 17:35 275 5 gusting 11 8.2
2020-Feb-22 17:30 284 5 gusting 10 8.4
2020-Feb-22 17:25 283 4 gusting 9 8.3
2020-Feb-22 17:20 277 5 gusting 12 8.0
2020-Feb-22 17:15 276 6 gusting 13 8.3
2020-Feb-22 17:10 304 4 gusting 9 8.0
2020-Feb-22 17:05 296 5 gusting 9 8.1
2020-Feb-22 17:00 280 3 gusting 9 7.9
2020-Feb-22 16:55 264 4 gusting 9 7.7
2020-Feb-22 16:50 260 4 gusting 10 7.5
2020-Feb-22 16:45 269 4 gusting 12 7.7
2020-Feb-22 16:40 282 4 gusting 8 7.3
2020-Feb-22 16:35 270 5 gusting 8 7.2
2020-Feb-22 16:30 267 5 gusting 10 7.0
2020-Feb-22 16:25 280 5 gusting 9 7.1
2020-Feb-22 16:20 289 3 gusting 7 7.4
2020-Feb-22 16:15 283 4 gusting 10 6.7
2020-Feb-22 16:10 288 5 gusting 11 6.9
2020-Feb-22 16:05 285 6 gusting 10 6.4
2020-Feb-22 16:00 277 6 gusting 11 6.5